Flag for Germany Weather past 2 weeks in Bremerhaven, Bremen, Germany

Now
66 °F

Partly sunny.


Feels Like: 66 °F
Forecast: 57 / 64 °F
Wind: 5 mph from Northwest

Location: Nordholz

Current Time: Aug 29, 2014 at 6:33:49 PM

Latest Report: Aug 29, 2014 at 5:20 PM


Visibility: N/A

Pressure: 29.92 "Hg

Humidity: 78%

Dew point: 59 °F

Location of BremerhavenLocation

Historic Weather in Bremerhaven — Graph

°F

Bremerhaven temperature yesterday

Maximum temperature yesterday: 73 °F (at 3:20 PM)
Minimum temperature yesterday: 48 °F (at 7:20 AM)
Average temperature yesterday: 61 °F

Past Weeks' High & Low Weather Summary

 TemperatureHumidityPressure
High73 °F (Aug 28, 3:20 PM)100% (Aug 15, 2:20 AM)30.04 "Hg (Aug 15, 2:20 AM)
Low45 °F (Aug 26, 2:20 AM)43% (Aug 27, 1:20 PM)29.45 "Hg (Aug 18, 8:20 AM)
Average57 °F81%29.84 "Hg
* Reported Aug 14 5:20 PM — Aug 29 5:20 PM, Bremerhaven, Weather by CustomWeather, © 2014

Note: Actual official high and low records may vary slightly from our data, if they occured in-between our weather recording intervals... More about our weather records

Advertising

Bremerhaven weather history for previous 24 hours

 ConditionsComfort  
Time TempWeatherWind HumidityBarometerVisibility
5:20 PM
Aug 29
66 °FPartly sunny.5 mph78%29.92 "HgN/A
4:20 PM66 °FScattered clouds.10 mph78%29.92 "HgN/A
3:20 PM68 °FScattered clouds.15 mph69%29.92 "HgN/A
2:20 PM68 °FScattered clouds.14 mph69%29.92 "HgN/A
1:20 PM68 °FScattered clouds.15 mph64%29.92 "HgN/A
12:20 PM66 °FPartly sunny.15 mph78%29.92 "HgN/A
11:20 AM63 °FPartly sunny.9 mph88%29.92 "HgN/A
10:20 AM63 °FPartly sunny.10 mph88%29.89 "Hg6 mi
9:50 AM63 °FPartly sunny.10 mph94%29.89 "Hg4 mi
9:20 AM63 °FPartly sunny.10 mph88%29.89 "Hg4 mi
8:20 AM63 °FFog.8 mph94%29.89 "Hg3 mi
7:20 AM63 °FLight rain. Fog.8 mph94%29.89 "Hg3 mi
6:51 AM63 °FFog.8 mph88%29.89 "Hg3 mi
6:20 AM63 °FPassing clouds.7 mph88%29.89 "HgN/A
5:20 AM63 °FPassing clouds.7 mph88%29.89 "HgN/A
4:20 AM64 °FPassing clouds.7 mph83%29.89 "HgN/A
3:20 AM63 °FPartly cloudy.7 mph88%29.89 "HgN/A
2:20 AM63 °FPassing clouds.5 mph88%29.92 "HgN/A
1:20 AM64 °FPassing clouds.5 mph83%29.92 "HgN/A
12:20 AM64 °FPassing clouds.5 mph83%29.92 "HgN/A
11:20 PM
Aug 28
64 °FPassing clouds.6 mph78%29.92 "HgN/A
10:20 PM64 °FPassing clouds.7 mph68%29.92 "HgN/A
9:20 PM66 °FBroken clouds.7 mph64%29.92 "HgN/A
8:20 PM68 °FPartly sunny.5 mph60%29.92 "HgN/A
7:20 PM70 °FPartly sunny.5 mph53%29.92 "HgN/A
6:20 PM73 °FPartly sunny.9 mph47%29.95 "HgN/A
Weather by CustomWeather, © 2014

See weather overviewHow to use our weather pages